Theta_e
350 350 351 351 351 352 351 352 352 351 352 353 354 354 352 350 349 348 347 347 348 347 347 347 347 348 348 348 349 349 349 349 349 349 349 348 348 348 347 346 346 345 344 343 342 341 339 341 341 339 337 335 334 334 335 336 337 337 338 337 337 338 338
350 350 351 351 351 351 350 352 352 352 354 354 353 351 350 348 346 346 346 346 346 346 346 346 347 348 348 348 348 348 349 349 349 349 348 348 347 346 345 344 343 341 340 339 337 336 336 338 338 336 336 336 335 335 336 337 338 338 339 339 339 339 338
350 350 351 349 349 348 350 352 352 353 353 352 351 350 348 347 345 346 345 344 344 344 344 345 346 347 348 348 348 348 348 347 347 347 346 345 344 343 343 341 340 338 337 335 334 335 335 336 336 336 336 336 336 337 337 338 339 339 340 339 339 338 337
350 351 350 348 349 350 351 353 351 352 351 350 351 348 346 346 345 345 344 343 343 342 343 344 345 347 347 347 347 347 346 345 344 344 343 343 342 342 341 339 337 336 335 335 334 334 335 335 336 336 336 337 337 337 338 338 339 339 339 338 337 337 334
350 351 349 348 352 353 353 351 350 350 351 351 350 348 346 346 345 345 344 343 343 342 343 344 344 346 345 346 345 344 344 342 341 341 340 341 341 341 341 340 338 336 335 334 334 335 335 334 335 335 336 337 338 338 339 339 339 338 338 337 337 334 331
350 350 348 350 354 354 352 349 349 350 351 350 350 347 346 346 344 345 343 343 343 342 343 344 344 345 345 345 344 343 342 339 337 336 336 336 336 336 336 337 337 336 335 335 334 335 335 334 335 336 336 338 338 339 339 339 338 338 338 337 335 331 328
350 350 349 352 355 353 351 350 350 351 351 351 351 348 347 346 344 344 343 343 344 343 343 344 344 345 345 345 344 343 340 336 335 334 333 332 332 332 333 333 334 335 335 335 335 335 336 336 336 337 337 339 339 339 339 339 339 339 337 334 331 329 329
350 350 350 353 355 352 350 351 351 352 353 352 351 349 347 347 345 343 343 343 344 344 344 344 344 345 345 345 344 342 338 335 335 335 333 332 333 334 335 335 335 335 336 336 335 336 336 336 337 339 340 340 340 340 340 339 339 336 333 332 330 330 330
349 350 352 354 354 352 350 352 352 352 354 353 352 350 348 347 346 345 345 345 344 345 344 344 344 344 345 344 342 339 336 335 336 335 333 333 335 336 336 337 337 337 337 337 337 338 338 339 340 341 340 340 340 340 339 339 337 333 331 331 331 330 329
350 351 354 354 354 351 351 353 353 353 354 353 353 351 348 348 347 347 347 346 346 345 344 344 343 343 343 342 339 337 336 336 335 334 334 335 337 337 338 339 339 339 339 340 340 341 341 341 341 340 340 339 339 339 339 338 334 331 331 331 329 329 329
350 352 355 355 353 351 351 353 353 353 353 353 353 352 349 349 348 348 348 348 347 346 345 344 343 342 340 338 337 336 336 336 335 335 336 337 338 339 340 340 340 340 341 341 341 341 340 340 339 339 340 339 339 339 337 334 331 330 330 329 329 329 329
350 353 355 355 353 352 352 353 353 353 353 353 353 352 350 349 349 349 349 349 348 346 345 343 342 340 337 336 336 336 336 336 336 337 338 339 340 340 340 340 340 341 341 341 341 340 340 340 339 339 340 340 339 336 332 330 329 329 329 329 329 330 329
350 353 355 355 354 352 352 353 353 353 353 352 352 351 350 349 349 349 349 349 348 346 344 343 340 337 336 335 336 337 337 338 338 339 339 340 340 340 340 341 341 341 341 340 341 340 340 340 340 340 340 339 336 332 330 330 330 330 330 330 330 329 329
350 352 354 355 354 352 353 353 353 353 353 351 351 351 350 350 349 349 349 349 347 346 345 343 339 335 335 335 337 338 338 339 340 341 340 341 341 341 342 341 340 340 340 341 340 340 340 340 340 340 340 337 333 330 330 331 330 330 330 330 329 328 329
350 352 353 355 355 354 353 353 353 353 353 352 351 350 351 350 349 349 349 348 347 346 344 342 339 335 335 336 337 338 339 341 342 342 342 342 342 343 343 341 339 340 340 341 340 340 340 340 341 341 339 335 331 330 331 331 330 330 330 329 327 328 327
350 351 352 355 355 355 353 353 353 353 353 351 350 350 352 351 349 348 349 348 347 345 343 341 337 334 333 334 336 339 341 342 342 342 343 343 343 344 343 341 339 340 340 340 340 341 341 341 341 339 336 332 331 331 331 330 329 329 329 328 328 328 323
350 349 352 354 355 355 354 353 353 353 353 351 350 350 352 351 349 348 349 349 347 345 343 340 336 331 330 332 334 338 341 342 343 342 342 344 344 343 342 340 340 341 340 340 341 341 341 339 338 336 333 331 331 331 331 331 330 329 329 328 328 324 317
348 348 352 354 355 354 353 353 353 353 352 352 350 351 352 352 350 347 349 350 348 346 343 341 337 332 330 332 335 338 339 341 342 342 342 344 344 342 341 341 341 341 341 341 340 340 338 336 334 333 332 332 332 331 331 330 330 330 329 327 323 318 314
347 348 351 353 354 352 352 352 353 352 352 352 351 351 351 352 350 347 348 349 349 347 344 342 338 332 330 333 335 335 337 339 342 342 341 343 343 342 341 342 342 341 342 341 339 337 336 334 333 333 332 332 332 331 330 329 329 329 326 321 317 315 316
347 348 350 352 352 350 350 352 352 352 351 351 351 351 351 351 350 347 348 349 349 348 345 343 339 331 327 328 329 331 334 337 340 340 340 341 342 341 341 341 341 342 341 340 338 335 334 334 333 333 332 332 331 330 329 329 327 324 320 316 316 318 319
348 349 349 352 351 349 350 351 351 351 351 351 352 351 349 350 349 349 349 350 349 347 346 344 338 330 325 325 325 328 333 337 339 341 342 342 341 341 342 342 342 342 341 339 337 335 334 333 332 332 332 331 330 329 327 325 322 318 316 317 319 320 320
350 350 350 351 351 350 350 349 350 351 351 351 352 350 348 349 349 349 350 350 348 347 346 343 337 329 326 325 326 330 336 339 341 343 343 343 342 342 342 343 342 341 339 337 336 335 333 332 333 332 331 329 327 325 322 320 318 317 317 319 320 319 317
352 350 350 350 350 350 350 350 350 350 350 351 351 350 348 348 349 349 350 350 349 347 345 341 335 330 328 328 331 335 339 341 342 343 343 342 342 343 343 343 342 339 337 336 335 333 332 332 332 329 326 324 322 321 320 319 318 318 319 321 319 315 310
349 350 350 350 350 350 350 350 350 350 350 350 350 350 348 347 348 349 350 351 348 346 344 340 336 334 332 331 334 337 339 341 342 343 344 343 343 344 343 342 340 338 336 334 332 331 330 329 326 323 321 320 319 319 318 318 318 320 321 319 314 308 305
346 348 349 349 350 350 349 350 350 349 349 350 350 348 347 348 349 349 351 351 348 345 344 340 337 337 335 333 335 338 341 343 343 343 343 343 344 344 342 340 338 336 333 332 331 329 326 323 321 318 317 316 316 316 316 317 318 319 317 311 306 305 308
346 347 349 349 349 350 350 350 350 350 350 351 350 348 347 349 350 350 351 350 347 345 343 340 337 337 337 335 337 341 345 346 344 343 344 344 344 343 340 337 335 332 330 329 327 324 321 319 317 316 314 314 314 314 314 314 314 311 308 306 308 311 314
348 348 349 349 349 349 350 351 351 352 352 351 350 348 349 349 350 351 351 350 347 345 344 341 337 337 339 339 339 343 347 347 345 344 344 344 342 340 338 335 331 327 325 323 321 319 318 316 316 315 315 314 312 310 309 307 306 305 306 310 316 319 319
350 350 349 350 349 350 350 351 352 353 350 347 346 347 349 350 351 351 351 350 348 346 345 342 339 339 341 341 340 344 347 347 345 345 344 342 340 337 333 329 325 321 319 318 318 317 315 315 316 315 313 310 307 305 304 304 306 309 313 318 320 321 320
347 347 347 350 351 351 352 353 353 350 344 341 342 344 347 350 351 351 351 350 348 348 347 345 342 342 342 341 342 346 348 347 346 344 342 339 335 330 326 322 320 320 319 319 318 316 316 316 315 312 308 305 304 304 305 308 312 316 318 320 320 320 320
345 345 346 348 350 351 352 354 351 345 339 340 343 341 343 348 351 351 351 350 349 349 348 345 343 343 341 342 345 347 347 346 345 341 337 332 328 324 322 321 321 321 321 320 319 318 317 314 310 307 305 305 305 307 310 314 317 318 319 319 319 320 320
345 346 345 346 348 350 351 351 347 342 341 344 343 340 343 347 349 351 352 351 350 351 349 344 341 339 339 342 347 348 346 345 341 336 331 326 323 323 322 322 323 323 322 320 318 315 312 308 306 306 306 306 307 310 314 316 317 318 319 318 319 320 320
345 346 345 346 349 350 349 348 346 344 345 346 344 342 343 344 345 348 351 351 350 350 349 345 339 336 338 344 348 349 346 340 335 331 327 323 323 323 323 324 325 323 320 317 313 309 308 307 307 307 307 307 309 313 316 317 318 317 317 318 319 320 318
345 347 349 349 350 350 347 346 347 345 341 343 346 344 339 339 343 348 351 351 348 349 349 346 342 340 344 348 349 347 342 334 329 328 326 324 323 323 324 325 325 320 315 312 309 308 309 308 309 308 308 309 312 316 318 319 319 317 317 318 319 319 317
347 348 351 351 350 349 344 343 346 345 340 343 349 348 340 336 340 345 347 347 345 345 347 348 347 347 348 349 348 343 335 329 328 329 327 325 325 324 325 324 321 315 312 310 310 310 310 309 309 309 309 311 315 318 320 320 319 318 317 318 318 318 317
349 349 350 350 351 350 343 337 341 345 343 343 348 350 346 337 334 338 342 341 338 337 340 344 347 348 348 347 344 338 332 329 330 330 329 328 326 325 324 321 317 314 312 311 311 311 310 310 309 309 310 314 317 319 319 319 319 318 318 318 318 317 317
348 350 350 351 352 352 347 340 338 343 346 344 346 350 349 339 332 336 339 337 335 335 337 342 344 345 345 344 339 334 331 331 331 331 331 330 329 327 323 318 315 315 314 313 312 312 311 310 310 310 313 316 319 319 319 319 318 318 318 318 317 317 316
345 349 351 351 352 352 350 344 338 339 344 345 345 349 349 342 334 335 335 334 335 336 338 341 341 341 344 341 335 332 332 331 331 332 333 332 331 327 322 317 315 316 315 314 314 313 312 311 311 312 314 317 318 319 319 319 318 317 317 317 317 316 315
344 346 349 350 351 353 352 349 340 335 340 343 343 346 347 343 337 334 334 336 336 335 338 342 340 340 343 339 334 332 331 330 332 333 334 334 331 325 320 316 316 316 316 315 314 314 313 312 312 313 315 317 318 319 319 318 317 317 317 317 316 315 315
Wind_Speed
10 9 9 10 9 8 8 8 8 8 8 7 8 8 7 7 6 6 5 5 4 4 4 5 5 6 7 8 8 10 12 14 14 12 12 12 12 12 11 10 9 10 11 11 11 10 9 9 9 8 6 4 3 2 1 1 3 4 6 7 9 11 12
9 9 9 10 9 8 8 9 8 8 8 8 8 7 7 6 6 5 5 6 6 7 7 8 8 9 9 10 10 11 13 14 14 13 12 13 13 12 12 11 12 13 12 12 10 10 10 10 9 7 5 4 4 3 3 3 4 6 8 9 11 12 13
10 9 9 10 10 10 10 11 10 10 9 9 8 8 7 7 7 7 7 7 8 8 9 10 11 11 10 11 11 12 13 14 14 14 13 13 14 13 13 13 13 12 11 10 8 7 7 8 7 6 5 4 4 5 5 6 7 7 9 10 12 12 13
11 10 10 11 11 12 12 11 11 11 10 10 9 8 8 8 9 9 8 8 8 8 9 10 11 12 11 11 12 12 14 15 15 15 14 14 14 13 13 12 11 10 8 7 5 4 4 5 5 5 5 5 5 6 6 7 8 8 9 10 11 11 12
11 10 11 13 14 13 13 13 13 14 13 12 10 9 9 9 9 9 9 9 9 9 9 10 11 12 12 12 13 14 16 16 15 14 12 11 11 10 9 8 7 6 5 4 3 2 2 3 3 4 5 6 7 7 7 7 7 8 9 10 10 11 10
12 12 13 15 15 14 14 15 15 16 15 13 11 11 11 10 10 10 10 9 9 10 10 10 10 11 12 13 14 15 16 15 14 12 11 11 10 10 8 7 5 3 2 2 1 1 2 3 4 4 5 6 6 6 7 7 7 8 9 10 10 9 9
13 13 15 16 16 15 15 16 16 15 13 12 11 11 11 11 11 11 10 10 10 10 11 11 11 12 13 14 15 15 14 13 12 12 12 11 11 11 10 8 6 4 2 1 2 2 3 3 4 4 4 4 5 6 6 6 6 8 9 9 8 8 10
14 15 16 16 15 14 15 16 16 15 13 12 11 11 11 11 11 11 11 11 11 11 11 12 12 13 15 15 15 14 12 11 10 10 9 9 10 9 9 8 6 4 2 1 1 2 3 4 4 5 5 5 6 6 6 6 7 8 8 8 8 10 12
15 16 16 15 14 14 14 15 14 14 13 11 10 10 10 9 10 10 11 11 11 11 12 13 14 15 16 16 14 12 10 9 8 7 7 8 9 8 7 7 6 4 2 1 1 3 3 4 5 5 5 5 5 5 6 7 8 8 8 8 10 12 14
15 16 16 15 15 15 14 14 13 13 12 10 10 10 9 8 9 9 10 11 12 12 12 14 15 16 16 15 13 11 9 7 6 6 7 8 7 6 6 6 5 4 2 2 3 4 4 5 6 6 5 5 5 5 6 7 8 8 9 10 12 14 17
16 18 18 17 17 16 15 14 13 12 11 10 10 9 8 8 8 8 9 10 11 11 12 14 15 16 16 15 13 11 7 5 5 6 6 7 6 5 5 5 5 4 3 4 4 5 6 7 7 6 6 5 4 5 6 7 8 9 10 11 13 15 19
18 19 20 19 19 18 16 14 12 11 11 10 10 9 9 8 7 7 8 9 10 10 12 14 15 16 15 14 13 10 7 5 5 6 5 5 4 4 4 4 4 4 4 4 6 7 7 7 7 7 6 5 4 4 5 7 8 9 10 12 14 17 20
19 20 21 20 19 18 16 14 13 12 11 12 11 9 9 8 7 7 8 9 10 10 12 14 15 16 15 14 12 9 7 7 7 6 5 3 3 3 4 3 4 4 5 6 7 8 8 8 7 7 7 6 3 3 5 6 7 9 11 13 15 19 22
20 20 21 21 19 19 17 16 15 14 13 13 12 10 9 8 7 8 9 10 11 12 13 14 15 16 15 13 11 9 8 8 7 6 4 2 2 3 4 4 5 6 7 8 9 9 9 9 8 7 6 4 2 3 5 7 8 10 12 14 17 20 24
22 22 21 21 21 20 19 17 16 16 15 14 13 12 9 8 8 9 10 11 12 13 14 14 15 16 16 14 11 8 7 7 6 5 3 2 1 3 4 5 6 7 8 9 10 10 10 9 8 7 5 3 3 5 6 8 10 11 13 15 18 21 25
23 22 21 21 21 20 20 18 17 16 16 14 13 13 11 8 8 10 11 12 12 13 14 14 14 16 17 15 12 9 8 6 4 4 3 1 2 4 5 6 6 7 9 10 10 10 9 9 7 6 4 3 4 6 8 9 11 13 14 16 19 23 25
23 22 21 21 20 20 19 19 17 17 17 15 14 14 13 10 9 11 12 12 13 13 13 13 14 16 17 16 14 11 9 6 4 3 2 1 4 5 5 6 7 8 9 10 10 9 7 6 4 3 3 4 5 7 8 10 12 13 15 18 21 23 22
23 22 21 20 20 20 19 19 18 18 18 16 15 15 16 14 12 13 13 13 13 13 13 13 13 15 17 16 13 11 10 8 6 3 1 2 4 5 4 5 7 9 10 10 8 6 3 2 2 2 3 5 5 6 8 10 12 13 16 20 22 21 19
22 20 20 21 20 20 20 19 18 18 18 17 15 15 16 16 14 13 13 12 12 13 14 13 12 14 16 14 13 11 10 10 8 5 3 3 4 5 6 7 8 9 10 8 5 2 1 2 3 3 4 5 5 7 9 11 12 15 18 19 18 18 20
21 19 19 20 21 20 20 19 18 17 17 17 14 13 15 15 14 13 13 12 12 13 14 13 12 13 14 13 12 12 11 10 8 6 4 4 4 5 7 8 8 8 8 6 3 0 1 3 4 4 4 6 7 8 10 11 13 16 17 17 17 19 22
18 19 18 19 20 19 19 18 17 17 18 17 14 13 13 13 13 14 13 11 11 13 14 13 11 11 12 12 12 11 11 9 7 5 4 5 4 5 7 7 7 7 6 3 1 1 3 4 5 5 6 7 8 9 10 12 13 14 16 17 19 21 23
16 17 18 19 19 17 16 15 14 14 16 16 14 13 12 12 13 14 13 11 11 12 13 12 11 11 12 11 10 10 8 6 4 5 5 5 5 6 6 6 5 5 3 2 2 3 4 5 5 6 7 8 9 9 10 11 12 14 17 19 21 22 24
17 16 17 17 17 16 14 14 13 13 14 14 13 13 12 12 13 15 14 12 11 12 13 12 11 12 12 11 10 8 6 4 4 5 5 5 6 6 5 4 3 2 0 2 3 4 5 7 7 8 8 8 8 8 10 12 14 16 18 20 22 24 25
18 18 17 15 15 15 14 14 14 13 13 12 12 12 11 13 14 15 14 12 12 13 13 12 12 13 12 11 9 8 5 4 4 5 5 5 5 6 5 3 2 1 0 2 4 6 7 8 8 8 8 8 9 10 11 13 15 17 19 21 23 24 24
15 17 17 15 13 13 13 13 13 12 12 11 11 11 11 14 15 15 15 13 12 13 13 13 13 13 12 11 9 7 5 4 4 4 5 5 5 4 3 3 2 0 1 4 6 7 8 7 7 7 8 10 11 12 13 15 16 18 20 22 22 22 20
8 12 14 14 12 10 10 11 10 9 10 11 10 9 10 14 16 15 15 13 13 14 13 13 14 13 12 11 8 6 4 4 4 4 4 3 2 3 3 3 1 2 4 6 7 7 6 6 6 8 10 11 12 14 15 16 17 19 20 19 19 18 16
5 5 8 10 10 9 8 9 9 9 10 10 9 7 10 15 16 15 15 14 14 14 12 12 14 14 12 10 7 5 5 6 5 5 3 1 3 4 3 1 2 4 5 6 5 5 5 5 7 10 12 13 14 15 15 16 16 16 16 16 15 15 14
7 2 5 8 10 10 10 9 9 8 9 10 10 10 12 16 17 16 16 15 13 13 11 12 15 15 12 9 7 6 6 6 5 4 1 3 4 2 1 2 4 5 6 5 5 5 5 6 9 11 13 13 14 14 14 14 13 13 14 14 14 13 12
6 3 4 7 10 11 9 8 7 9 10 10 11 12 13 17 18 18 17 15 12 11 11 12 15 15 13 10 8 7 6 6 5 2 1 3 3 2 3 4 5 5 5 5 6 7 6 8 10 11 12 13 12 12 12 11 12 13 13 14 13 12 12
7 5 4 6 8 8 7 7 10 12 12 11 10 10 12 15 17 17 16 14 12 12 11 12 16 16 14 11 8 7 6 5 4 3 3 3 3 4 5 5 4 4 4 6 7 7 7 8 10 10 10 11 10 10 10 11 12 12 12 12 12 12 12
10 8 5 5 5 5 5 8 10 11 11 11 10 9 10 12 13 15 14 12 12 12 11 13 16 17 14 11 9 6 5 6 6 6 5 4 5 5 5 4 3 3 5 6 7 6 7 7 8 8 9 9 9 10 11 11 11 11 11 11 12 13 13
11 11 8 5 3 1 2 5 6 8 10 11 11 10 10 10 10 10 10 10 12 12 11 13 15 15 13 11 9 7 6 7 8 8 7 6 5 4 2 1 2 4 5 5 5 5 5 6 7 9 9 9 10 10 10 11 11 10 10 12 13 14 15
11 9 7 3 3 2 1 3 6 8 8 10 13 14 12 10 9 8 8 10 11 10 11 13 15 14 13 11 9 7 7 8 9 8 7 6 5 3 1 1 3 3 3 3 2 3 4 5 8 11 11 10 10 10 10 10 11 11 12 14 15 17 17
8 6 6 5 4 2 2 5 9 9 8 10 14 15 14 13 12 10 9 9 8 7 9 13 15 14 12 9 8 8 9 9 9 8 7 6 5 3 2 2 2 2 2 1 1 3 5 7 11 13 12 10 8 8 9 11 12 13 15 16 17 19 19
7 7 10 9 6 6 6 6 9 11 10 11 16 18 16 13 11 10 9 8 7 8 9 12 14 13 9 8 8 9 10 10 8 7 6 5 4 4 2 1 0 2 2 2 3 6 8 10 12 13 11 8 8 8 10 12 13 14 16 17 18 20 21
7 7 10 10 8 8 8 6 7 10 11 13 17 21 19 13 8 8 9 8 8 8 8 9 11 11 9 8 9 10 10 10 9 7 5 4 4 3 2 1 1 2 3 5 6 8 9 11 13 13 10 7 8 10 12 13 14 14 16 17 18 20 22
8 7 8 9 9 10 10 9 9 10 12 13 17 21 22 16 8 7 9 10 9 8 9 11 11 10 9 10 12 11 10 10 8 7 6 5 5 4 3 1 1 2 4 6 7 8 10 11 13 12 9 7 8 10 11 12 13 14 16 17 19 21 21
10 9 8 8 8 10 13 12 11 12 13 14 16 19 21 19 11 6 8 12 11 10 12 14 12 9 10 13 14 12 11 10 8 8 8 7 6 5 4 2 1 3 4 6 6 7 9 11 12 11 9 8 8 10 10 11 12 14 16 18 20 21 21
Wind_Direction
179 181 182 187 193 191 183 187 191 192 191 180 175 179 185 193 195 189 180 170 156 137 117 105 111 120 117 119 123 116 110 106 102 104 106 109 114 120 131 142 145 146 144 144 146 142 135 140 152 163 176 197 231 265 313 14 342 332 327 320 319 320 319
182 186 185 182 186 186 180 182 183 180 178 172 170 175 178 176 165 153 143 132 120 110 106 104 108 117 119 117 116 113 110 109 109 110 111 113 116 120 127 132 135 138 139 140 140 136 139 150 161 173 194 211 231 259 284 309 314 314 312 311 312 313 314
187 188 179 172 175 176 173 171 169 171 174 173 170 166 159 152 140 129 123 117 113 110 108 107 110 113 112 111 113 114 112 112 111 111 112 114 116 120 126 132 136 139 140 140 139 143 152 163 177 192 209 222 240 264 284 300 306 306 304 304 306 309 313
189 184 168 162 167 167 164 164 166 167 167 165 163 158 152 148 140 132 129 123 116 115 114 113 115 116 113 114 118 117 114 112 111 112 115 119 123 128 133 138 140 140 145 147 144 150 165 182 198 212 231 248 263 276 289 299 303 304 302 304 309 314 318
188 181 169 167 168 166 163 166 167 164 161 159 155 152 152 150 145 142 142 136 127 124 121 119 122 123 122 124 125 122 116 112 111 112 118 123 127 131 135 140 143 144 152 159 157 170 196 218 229 242 257 266 276 286 296 305 308 307 308 311 317 320 322
191 187 180 177 174 170 168 167 166 163 161 158 153 152 155 154 152 150 148 144 136 130 126 124 127 130 131 130 127 123 118 113 110 110 113 117 116 113 115 122 128 135 161 183 203 234 248 253 253 263 274 278 285 295 303 307 310 310 314 319 320 322 327
196 195 188 185 181 173 169 166 164 163 160 157 155 155 159 159 155 152 149 146 140 133 129 129 129 133 135 134 131 126 121 117 114 112 114 114 108 101 97 98 103 115 147 197 230 256 266 271 278 296 309 304 301 306 308 309 316 321 323 324 323 327 336
202 200 193 189 184 176 172 168 165 165 164 163 162 161 162 161 157 153 149 146 143 137 136 135 133 136 139 139 136 132 129 128 123 117 115 110 99 89 83 84 93 107 121 197 255 272 274 282 303 319 323 321 317 317 317 321 328 331 329 325 326 332 338
205 201 197 193 187 182 178 173 171 171 170 169 169 168 167 163 160 158 151 146 146 143 143 143 141 140 143 144 142 140 142 140 128 120 115 104 92 81 75 73 79 89 82 14 301 294 294 301 313 322 326 330 329 326 326 331 337 337 332 328 330 334 338
208 201 199 196 192 189 185 183 184 182 178 176 175 174 172 168 166 165 157 150 148 147 149 151 149 146 148 150 149 148 152 148 133 125 116 102 90 78 68 63 65 75 60 23 359 336 327 326 326 332 341 347 343 334 335 341 345 340 333 334 336 337 340
210 204 201 200 197 194 192 193 194 189 186 185 180 177 176 175 177 173 165 157 152 151 154 156 156 155 156 158 159 158 160 154 138 127 113 101 93 74 59 56 56 51 28 8 356 340 332 331 332 338 346 351 348 345 351 354 351 344 339 339 339 339 339
211 206 204 204 202 198 198 200 200 196 194 192 184 178 176 178 184 183 175 167 160 158 159 161 163 164 165 166 166 164 160 150 134 120 108 98 88 61 51 51 39 18 352 341 340 335 332 332 332 336 340 341 348 358 2 360 354 349 344 340 338 338 336
214 211 208 208 204 201 204 206 206 204 202 199 191 181 177 179 186 190 185 177 170 165 163 165 167 169 171 171 168 163 154 141 125 112 107 98 75 46 35 23 358 340 331 332 336 334 331 328 327 330 331 331 345 5 1 354 348 344 340 338 336 335 333
217 215 213 211 206 206 208 210 210 209 208 207 197 183 178 182 190 195 194 186 178 171 168 170 172 173 173 174 171 163 152 139 125 118 117 100 58 24 4 349 336 332 331 331 331 328 324 322 324 328 329 328 340 353 351 345 340 339 336 333 332 330 331
218 217 216 212 209 209 212 213 214 212 212 211 201 189 184 186 192 197 198 194 184 175 169 170 175 176 176 178 177 170 158 145 134 131 133 112 31 350 343 336 329 328 327 326 325 322 318 315 319 322 320 318 334 342 345 343 338 335 332 328 327 328 331
221 220 219 215 212 212 215 219 220 216 214 212 203 197 195 194 200 202 200 197 189 179 171 168 174 178 179 182 183 179 172 161 150 150 157 188 317 324 327 326 322 321 321 320 320 318 313 309 311 310 305 317 338 341 341 339 334 331 328 325 325 328 333
224 225 223 218 215 214 217 223 223 218 215 213 208 206 204 204 211 211 203 198 191 183 174 170 172 175 179 183 185 184 183 183 182 178 180 300 326 327 322 317 313 313 317 318 318 317 312 310 312 303 303 324 334 335 334 332 330 326 323 322 325 329 335
227 227 225 221 217 217 219 224 224 218 217 217 215 215 212 209 215 216 206 197 194 189 182 177 174 174 179 183 186 189 193 197 201 209 255 315 325 318 305 303 309 315 318 318 321 323 320 331 341 316 308 320 327 331 332 331 326 320 317 321 326 332 339
231 232 229 223 220 220 222 226 225 221 223 226 224 222 217 212 216 217 204 194 195 194 190 186 179 177 182 186 190 196 200 203 211 227 254 292 313 302 291 296 305 315 318 320 331 349 344 339 335 309 302 316 328 332 333 330 322 317 318 324 332 339 341
236 236 232 226 225 225 227 231 230 228 232 234 233 230 219 212 215 214 202 196 199 198 197 196 187 181 184 187 193 198 202 207 216 230 254 286 297 287 289 294 301 314 320 326 347 5 300 326 327 323 324 330 336 336 331 324 317 317 325 334 340 339 337
241 239 235 231 231 231 233 238 237 235 238 238 238 234 220 211 216 214 204 201 204 201 202 204 196 185 185 187 190 195 201 210 223 245 272 285 281 282 295 300 310 323 321 316 315 273 303 332 339 343 343 336 337 334 324 317 318 327 338 341 339 335 331
245 244 242 240 241 243 245 248 247 243 244 245 244 238 222 213 219 216 208 208 212 208 207 209 203 190 187 187 186 191 203 216 240 269 283 291 293 302 314 316 326 339 320 277 283 297 319 339 341 340 337 333 333 327 320 323 331 339 341 337 333 331 328
255 253 251 250 251 252 252 252 251 249 251 254 251 241 225 215 217 216 212 215 218 214 211 210 203 192 189 187 186 191 204 224 253 272 285 303 312 320 332 341 350 10 334 278 298 316 331 337 337 335 337 338 339 334 333 337 339 337 335 332 329 328 328
264 258 258 258 258 257 253 250 249 248 252 257 254 245 230 217 214 213 213 218 222 217 213 209 199 193 191 191 190 193 206 236 261 277 293 307 319 331 352 30 57 79 247 301 320 333 338 340 341 343 349 352 349 346 343 340 336 333 331 328 327 328 330
268 258 257 260 263 264 258 252 251 251 253 252 251 250 236 219 214 212 212 219 224 219 215 209 200 195 196 195 190 192 212 248 265 278 297 308 326 352 31 81 103 207 302 325 334 341 345 348 352 354 356 357 353 350 345 340 336 331 328 327 328 330 334
281 258 257 263 269 272 266 255 249 246 242 236 242 255 242 221 216 215 215 220 225 221 217 210 202 200 202 197 187 192 227 259 277 291 307 318 2 54 98 131 153 325 338 341 345 352 357 358 360 1 1 357 352 348 344 338 333 328 328 331 334 336 341
4 272 262 266 266 265 253 236 226 218 215 215 218 225 223 218 218 217 218 224 228 224 218 212 206 205 204 195 182 197 238 266 288 304 318 17 84 105 140 156 9 2 2 2 2 3 2 2 2 0 356 352 348 345 341 335 332 332 336 341 343 345 349
30 337 266 258 254 252 237 220 212 202 193 194 192 188 197 209 215 216 220 227 231 226 220 215 212 210 206 195 188 207 239 269 290 300 342 98 108 123 138 52 36 30 27 24 12 360 1 3 359 354 350 349 348 344 340 339 342 347 351 353 353 351 351
17 349 280 250 245 246 234 216 206 191 184 190 192 186 190 201 207 212 219 228 231 226 224 221 216 214 212 203 199 217 246 269 272 267 105 114 124 108 79 67 57 49 38 16 357 358 4 359 351 349 350 350 348 345 348 355 1 1 360 358 355 352 353
342 327 287 247 240 238 225 210 200 188 185 192 194 191 194 197 200 207 217 227 229 224 225 222 215 214 216 214 212 227 245 244 215 175 144 139 128 97 84 77 60 39 16 351 348 358 358 350 349 350 350 349 351 359 8 12 10 5 1 359 357 357 355
322 316 301 269 249 235 214 206 199 192 193 193 185 183 190 190 194 204 215 226 229 226 226 221 214 212 216 220 225 233 225 198 172 157 155 149 123 100 84 69 39 4 345 338 342 350 349 348 351 351 350 357 8 17 20 18 14 8 3 3 5 0 351
310 315 310 283 232 203 225 220 210 203 200 192 176 167 173 179 183 194 211 229 234 232 231 223 214 209 208 214 226 230 205 180 168 162 160 149 126 111 97 42 349 336 332 331 337 351 357 358 359 359 3 12 19 24 24 20 15 11 8 9 7 358 349
303 307 304 261 147 88 349 233 211 208 208 199 182 166 163 170 168 168 198 225 236 240 238 230 219 208 204 211 221 215 189 173 168 164 158 148 138 137 169 270 314 327 330 329 346 13 20 17 14 13 14 18 23 30 30 20 12 9 8 7 3 356 350
300 269 250 230 184 172 204 187 188 201 221 219 198 177 165 169 171 169 184 206 223 241 245 242 236 224 214 216 215 196 177 169 169 166 157 153 160 179 215 257 314 343 346 2 51 51 45 33 23 18 17 20 29 38 33 18 10 8 7 4 360 354 350
313 259 246 246 233 228 230 205 192 198 207 211 203 188 178 179 183 178 176 186 210 228 235 240 245 245 238 220 202 183 174 173 175 171 164 170 186 199 212 219 5 19 41 77 71 54 45 35 24 19 20 25 29 30 23 15 10 9 8 3 357 351 349
323 281 259 251 238 231 236 232 217 209 206 208 203 192 185 189 191 179 177 189 209 217 216 218 231 247 250 222 199 187 182 182 181 178 182 200 212 219 228 213 130 60 60 65 58 47 39 31 23 21 25 31 26 17 12 9 9 10 8 3 356 352 350
304 292 275 259 242 232 229 224 217 212 211 216 214 199 190 189 186 177 189 202 204 204 206 208 216 236 238 215 202 198 195 191 188 186 196 214 225 236 251 254 103 80 68 59 50 41 33 27 22 20 23 34 31 15 5 4 8 10 9 4 358 356 354
280 277 276 268 250 232 224 219 213 206 205 213 221 211 196 190 188 193 204 206 205 206 210 212 216 221 212 204 204 204 202 201 199 197 204 217 225 230 240 261 49 78 77 61 49 39 31 25 21 17 18 28 26 13 6 9 13 13 10 6 2 359 356